[[{"header":{"parameterUnit":"m.s-1","parameterCategory":1,"la1":30.2991,"la2":30.254,"lo1":-89.0895,"lo2":-89.0444,"dy":0.0017,"dx":0.0017,"nx":28,"ny":28,"refTime":"2023-08-03T21:00:00:Z","depth":0,"parameterNumber":2,"parameterNumberName":"U-component_of_WINDS"},"data":[0,0,0,0,0,0,0,0,0,0,0,0,0,0,0,0,0,0,0,0,0,0,0,0,0,0,0,0,0,0,0,0,0,0,0,0,0,0,0,0,0,0,0,0,0,0,0,0,0,0,0,0,0,0,0,0,0,0,5.4352,5.4353,0,5.4441,5.4442,5.4443,5.4368,5.4364,5.4361,5.4358,5.4447,5.4453,5.4458,0,0,0,0,0,0,0,0,0,0,0,0,0,5.411,5.4115,5.4352,5.4353,5.4354,5.4441,5.4443,5.4444,5.4368,5.4364,5.436,5.4357,5.4446,5.4452,5.4458,0,0,0,0,0,0,0,0,0,0,0,0,0,5.4209,5.4117,5.4352,5.4327,5.4326,5.4441,5.4443,5.4444,5.4369,5.4364,5.4359,5.4355,5.4444,5.4451,5.4459,5.4603,0,0,5.4484,5.4487,0,0,0,0,0,0,0,0,5.4204,5.4218,5.4329,5.4329,5.4328,5.4389,5.439,5.4497,5.437,5.4352,5.4358,5.4353,5.4432,5.444,5.4467,5.4607,5.4611,5.4484,5.4489,5.4493,5.4495,0,0,0,0,0,0,0,5.4197,5.4214,5.4387,5.4331,5.433,5.431,5.4318,5.441,5.4417,5.4354,5.4348,5.436,5.443,5.446,5.4469,5.4612,5.4484,5.4491,5.4496,5.4499,5.487,5.4874,0,0,0,0,0,0,5.4193,5.4209,5.4384,5.439,5.4253,5.4318,5.4328,5.4374,5.4416,5.4418,5.4364,5.4356,5.4448,5.446,5.4472,5.4639,5.4492,5.45,5.4505,5.4865,5.4871,5.4876,0,0,0,0,0,0,5.4188,5.421,5.4381,5.4298,5.4318,5.4327,5.4379,5.4378,5.4407,5.4424,5.4424,5.4393,5.4445,5.446,5.457,5.4641,5.4504,5.4511,5.4859,5.4867,5.4874,5.4977,0,0,0,0,0,0,5.4182,5.4208,5.4264,5.43,5.4323,5.4479,5.4384,5.4383,5.4422,5.4412,5.4452,5.4454,5.4443,5.4558,5.4578,5.465,5.4517,5.4852,5.4862,5.4871,5.4967,5.4988,5.5005,0,0,0,0,0,5.4173,5.429,5.4268,5.4289,5.4393,5.4484,5.4497,5.4482,5.4428,5.4483,5.4493,5.4452,5.4631,5.457,5.4592,5.4667,5.4848,5.4859,5.487,5.4959,5.4984,5.5004,0,0,0,0,0,0,5.4263,5.4295,5.427,5.4402,5.4441,5.4471,5.454,5.4509,5.4564,5.4553,5.4532,5.4541,5.4656,5.4673,5.4605,5.4806,5.473,5.4746,5.479,5.4814,5.4832,5.4824,5.4524,0,0,0,0,0,5.4298,5.437,5.4394,5.4508,5.4529,5.4531,5.457,5.4556,5.4595,5.461,5.4629,5.4667,5.4731,5.4774,5.4834,5.497,5.4975,5.5032,5.5051,5.5066,5.5079,5.5148,5.5172,5.4914,5.4914,5.4913,0,0,5.4372,5.4398,5.4445,5.4527,5.4555,5.4627,5.4546,5.4627,5.468,5.4622,5.4726,5.4741,5.4782,5.4904,5.4959,5.4922,5.5152,5.508,5.5092,5.5097,5.5162,5.5187,5.5208,5.4921,5.492,5.4919,0,0,5.4541,5.4571,5.4667,5.4696,5.474,5.4741,5.4764,5.4798,5.4806,5.491,5.4867,5.4929,5.5041,5.5071,5.5101,5.528,5.5243,5.53,5.5396,5.5463,5.5483,5.5501,5.5561,5.5583,5.5314,5.5314,5.5314,0,5.4626,5.4736,5.472,5.4804,5.4839,5.4791,5.4887,5.4916,5.4977,5.5002,5.496,5.5097,5.5122,5.5248,5.5291,5.5319,5.5342,5.5294,5.5482,5.55,5.5516,5.5573,5.5596,5.5321,5.532,5.5319,5.5319,0,5.4836,5.4913,5.4985,5.5044,5.5089,5.5178,5.5174,5.522,5.5202,5.5206,5.531,5.5338,5.5401,5.5431,5.5414,5.5554,5.5529,5.5485,5.5408,5.5548,5.56,5.5622,5.533,5.5327,5.5325,5.5324,0,0,5.5065,5.5113,5.514,5.5164,5.5208,5.5266,5.5352,5.5414,5.5452,5.5496,5.5565,5.566,5.5618,5.5652,5.5638,5.5698,5.5833,5.5646,5.5647,5.5676,5.5984,5.6014,5.6039,5.5809,5.5814,5.5817,5.5979,0,5.5233,5.5383,5.537,5.5511,5.5579,5.5533,5.5608,5.5641,5.5647,5.5704,5.5711,5.5777,5.5719,5.5739,5.5796,5.5804,5.5893,5.5793,5.587,5.5873,5.5858,5.6068,5.6101,5.6252,5.6,5.6003,5.6006,0,5.545,5.55,5.5648,5.5678,5.5706,5.5773,5.5827,5.5883,5.5919,5.5919,5.5956,5.5931,5.6015,5.5938,5.6051,5.5983,5.6014,5.6023,5.6028,5.6032,5.5946,5.6073,5.63,5.6321,5.6039,5.6036,5.6034,0,5.5596,5.5701,5.5802,5.5825,5.5864,5.5912,5.593,5.5961,5.5998,5.6045,5.6068,5.6125,5.6155,5.6198,5.6188,5.6134,5.6302,5.6225,5.6301,5.6301,5.6336,5.6333,5.6567,5.6363,5.6362,5.6362,5.6362,0,5.5784,5.5875,5.5868,5.593,5.6029,5.6013,5.6111,5.6124,5.6152,5.6213,5.6178,5.6236,5.6221,5.6277,5.627,5.6362,5.6377,5.6377,5.6373,5.6378,5.6378,5.6396,5.6384,5.6368,5.6367,5.6365,5.6364,0,5.5963,5.5963,5.6069,5.6097,5.6105,5.6177,5.62,5.6257,5.626,5.6337,5.6355,5.6359,5.6423,5.6418,5.6492,5.6486,5.6599,5.6585,5.6587,5.6582,5.6657,5.6648,5.6907,5.6939,5.6718,5.672,5.6722,0,5.6081,5.615,5.6185,5.6223,5.6244,5.6308,5.6345,5.6331,5.6371,5.6415,5.6466,5.6528,5.6576,5.6681,5.6689,5.6744,5.6728,5.6816,5.6736,5.6738,5.6725,5.6719,5.6724,5.683,5.6832,5.6835,5.6836,0,5.6289,5.6285,5.634,5.6395,5.644,5.6483,5.6521,5.6554,5.6544,5.659,5.6656,5.6693,5.6767,5.6827,5.6879,5.6895,5.6863,5.6861,5.6881,5.6885,5.6881,5.688,5.6625,5.6855,5.6853,5.6852,5.6851,5.685,5.6439,5.6496,5.6528,5.659,5.6618,5.6654,5.6707,5.6716,5.6771,5.683,5.6819,5.6891,5.6922,5.6988,5.701,5.7065,5.7033,5.7063,5.707,5.7076,5.7083,5.6876,5.7075,5.7074,5.7074,5.7074,5.7073,0,5.6641,5.6659,5.6716,5.6771,5.6818,5.6786,5.6826,5.6867,5.6932,5.6964,5.7012,5.7085,5.7143,5.7156,5.721,5.7251,5.7238,5.7266,5.7261,5.7264,5.711,5.7086,5.7276,5.7276,5.7276,5.7276,5.7275,5.7275,5.6752,5.6846,5.6845,5.6951,5.6968,5.7039,5.7064,5.7096,5.7121,5.7205,5.7253,5.7261,5.7284,5.734,5.739,5.7392,5.7412,5.7445,5.7441,5.7296,5.7276,5.7256,5.7233,5.745,5.7451,5.7589,5.759,5.7591]},{"header":{"parameterUnit":"m.s-1","parameterCategory":1,"la1":30.2991,"la2":30.254,"lo1":-89.0895,"lo2":-89.0444,"dy":0.0017,"dx":0.0017,"nx":28,"ny":28,"refTime":"2023-08-03T21:00:00:Z","depth":0,"parameterNumber":3,"parameterNumberName":"V-component_of_WINDS"},"data":[0,0,0,0,0,0,0,0,0,0,0,0,0,0,0,0,0,0,0,0,0,0,0,0,0,0,0,0,0,0,0,0,0,0,0,0,0,0,0,0,0,0,0,0,0,0,0,0,0,0,0,0,0,0,0,0,0,0,3.438,3.4381,0,3.4454,3.4455,3.4456,3.4441,3.444,3.4439,3.4437,3.4511,3.4514,3.4517,0,0,0,0,0,0,0,0,0,0,0,0,0,3.4223,3.4226,3.438,3.4381,3.4382,3.4454,3.4455,3.4456,3.4442,3.444,3.4438,3.4437,3.451,3.4513,3.4517,0,0,0,0,0,0,0,0,0,0,0,0,0,3.4293,3.4226,3.438,3.4384,3.4385,3.4454,3.4455,3.4456,3.4442,3.444,3.4438,3.4436,3.4508,3.4513,3.4518,3.4587,0,0,3.4532,3.4534,0,0,0,0,0,0,0,0,3.4289,3.4299,3.4382,3.4383,3.4385,3.4437,3.4426,3.45,3.4442,3.442,3.4437,3.4435,3.4487,3.4494,3.4512,3.459,3.4594,3.4533,3.4536,3.4538,3.4539,0,0,0,0,0,0,0,3.4284,3.4296,3.4409,3.4383,3.4385,3.438,3.4388,3.444,3.4464,3.4422,3.4421,3.443,3.4488,3.4507,3.4514,3.4595,3.4533,3.4537,3.454,3.4542,3.4731,3.4733,0,0,0,0,0,0,3.4279,3.4292,3.4407,3.4412,3.4331,3.4385,3.4393,3.4422,3.4463,3.4468,3.4432,3.4429,3.45,3.4508,3.4516,3.4598,3.4538,3.4542,3.4545,3.4729,3.4731,3.4734,0,0,0,0,0,0,3.4275,3.4289,3.4404,3.4351,3.4366,3.4389,3.4422,3.4424,3.4444,3.4471,3.4475,3.4448,3.4499,3.4509,3.4569,3.4601,3.4544,3.4549,3.4726,3.473,3.4733,3.4765,0,0,0,0,0,0,3.4271,3.4288,3.4316,3.4352,3.4369,3.4457,3.4424,3.4427,3.4453,3.445,3.4487,3.4491,3.4498,3.4562,3.4574,3.4606,3.4552,3.4724,3.4728,3.4732,3.4761,3.4768,3.4775,0,0,0,0,0,3.4265,3.4322,3.4317,3.4331,3.4404,3.4459,3.4468,3.4476,3.4455,3.4482,3.4499,3.449,3.4595,3.4568,3.4581,3.4616,3.4722,3.4727,3.4731,3.4758,3.4767,3.4775,0,0,0,0,0,0,3.4288,3.4327,3.4322,3.4392,3.4423,3.4457,3.4491,3.4486,3.4522,3.4518,3.4526,3.4534,3.4594,3.4611,3.458,3.4684,3.4655,3.4663,3.4671,3.468,3.4687,3.4681,3.4556,0,0,0,0,0,3.4301,3.4344,3.4375,3.4434,3.4449,3.4468,3.4492,3.4495,3.4527,3.4539,3.456,3.459,3.463,3.4656,3.4694,3.4763,3.477,3.4793,3.48,3.4806,3.4812,3.4848,3.4858,3.475,3.475,3.475,0,0,3.4329,3.4355,3.4382,3.4439,3.4463,3.4505,3.4479,3.4525,3.4556,3.4546,3.4604,3.462,3.4654,3.4718,3.4747,3.4733,3.4843,3.4812,3.4816,3.482,3.4854,3.4864,3.4873,3.4753,3.4753,3.4752,0,0,3.4401,3.4426,3.4477,3.4501,3.4537,3.4549,3.4561,3.4596,3.4606,3.4664,3.4657,3.4693,3.4762,3.4786,3.4807,3.4885,3.4877,3.4897,3.4935,3.4969,3.4978,3.4985,3.5012,3.5021,3.4904,3.4904,3.4904,0,3.443,3.4495,3.4503,3.455,3.4575,3.4567,3.4618,3.4641,3.4687,3.4704,3.4688,3.4773,3.4795,3.4864,3.4883,3.49,3.4913,3.4893,3.4976,3.4984,3.4991,3.5016,3.5026,3.4906,3.4906,3.4906,3.4905,0,3.4529,3.4574,3.461,3.4656,3.4684,3.4733,3.4746,3.4774,3.4774,3.4787,3.4845,3.4871,3.4913,3.493,3.4931,3.4998,3.4988,3.4974,3.4946,3.5003,3.5027,3.5037,3.4909,3.4908,3.4908,3.4907,0,0,3.4618,3.4666,3.4679,3.4699,3.4738,3.4772,3.4819,3.4861,3.4884,3.4916,3.4954,3.5012,3.4998,3.5022,3.5025,3.5056,3.5114,3.5038,3.5038,3.505,3.5187,3.5197,3.5208,3.5109,3.5111,3.5112,3.5184,0,3.4692,3.4777,3.4784,3.4859,3.4899,3.4892,3.4933,3.496,3.4973,3.5008,3.5021,3.5061,3.5042,3.5056,3.5085,3.5101,3.5141,3.5096,3.5143,3.5145,3.5134,3.5221,3.5232,3.5298,3.5193,3.5195,3.5196,0,3.4791,3.4826,3.4905,3.4936,3.4953,3.499,3.5028,3.5062,3.5092,3.5098,3.5124,3.5123,3.5169,3.5139,3.5202,3.5171,3.519,3.5201,3.5203,3.5207,3.5173,3.5226,3.532,3.5329,3.5211,3.521,3.5209,0,3.4846,3.4912,3.4968,3.4985,3.5024,3.5049,3.5066,3.5094,3.5118,3.5151,3.5166,3.5203,3.5224,3.5252,3.526,3.5238,3.5322,3.5293,3.5327,3.5327,3.5345,3.5344,3.5442,3.536,3.536,3.5359,3.5359,0,3.4927,3.4976,3.4993,3.5027,3.508,3.5087,3.5139,3.5154,3.5179,3.5214,3.521,3.5244,3.5253,3.5287,3.5293,3.5343,3.5353,3.5358,3.5359,3.5358,3.5357,3.5371,3.5366,3.5362,3.5361,3.5361,3.5361,0,3.4998,3.5012,3.5071,3.5102,3.5111,3.5149,3.5175,3.5206,3.5218,3.5263,3.5273,3.5291,3.5331,3.5342,3.539,3.5394,3.5452,3.545,3.5443,3.5442,3.5475,3.5472,3.5585,3.5599,3.5509,3.5509,3.551,0,3.5049,3.5086,3.512,3.5144,3.5162,3.5201,3.5225,3.5233,3.5258,3.5294,3.5321,3.536,3.5392,3.5456,3.5472,3.5508,3.5506,3.5543,3.5511,3.5508,3.5504,3.5502,3.5504,3.5548,3.5549,3.555,3.5551,0,3.5137,3.5141,3.5177,3.5215,3.5244,3.5274,3.5302,3.5322,3.5333,3.5362,3.5403,3.5427,3.5476,3.5514,3.555,3.5566,3.556,3.5561,3.557,3.5569,3.5563,3.5565,3.5458,3.5558,3.5557,3.5557,3.5556,3.5556,3.5198,3.523,3.5259,3.5298,3.532,3.5347,3.5377,3.5393,3.5427,3.5468,3.547,3.5514,3.5541,3.5588,3.5606,3.5639,3.5628,3.5642,3.5646,3.5649,3.5651,3.5558,3.5646,3.5646,3.5646,3.5646,3.5645,0,3.5284,3.5302,3.5339,3.5379,3.5409,3.5401,3.5432,3.5457,3.5496,3.5522,3.5554,3.56,3.5637,3.5655,3.5692,3.5714,3.5712,3.5724,3.5721,3.5725,3.566,3.5647,3.5725,3.5724,3.5724,3.5724,3.5724,3.5724,3.5333,3.5385,3.5393,3.5456,3.5473,3.5517,3.5535,3.5558,3.5579,3.5631,3.5661,3.5674,3.5696,3.5733,3.5766,3.5771,3.5783,3.5796,3.5799,3.5738,3.5729,3.5722,3.571,3.5799,3.5799,3.586,3.5861,3.5861]}]]